Weather History for Avalon, VC

Change the Weather History Date:

Tuesday, May 7, 2013

  Actual Average (YMML) Record (YMML)
Temperature  
Mean Temperature 58 °F -  
Max Temperature 71 °F 61 °F 80 °F (2002)
Min Temperature 44 °F 46 °F 39 °F (2011)
Degree Days  
Heating Degree Days 8    
Growing Degree Days 8 (Base 50)    
Moisture  
Dew Point 44 °F    
Average Humidity 69    
Maximum Humidity 93    
Minimum Humidity 25    
Precipitation  
Precipitation 0.01 in - - ()
Sea Level Pressure  
Sea Level Pressure 30.25 in    
Wind  
Wind Speed 6 mph ()    
Max Wind Speed 16 mph    
Max Gust Speed -    
Visibility 6.2 miles    
Events Rain    
Averages and records for this station are not official NWS values.
T = Trace of Precipitation, MM = Missing Value Source: Averaged Metar Reports

Daily Weather History Graph

Daily Weather History Graph

Search for Another Location

Airport:

Trip Planner

Search our weather history database for the weather conditions in past years. The results will help you decide how hot, cold, wet, or windy it might be!

Date:

Astronomy

May. 07, 2013 Rise Set
Actual Time 7:08 AM EST 5:28 PM EST
Civil Twilight 6:40 AM EST 5:55 PM EST
Nautical Twilight 6:09 AM EST 6:27 PM EST
Astronomical Twilight 5:38 AM EST 6:58 PM EST
Moon 4:12 AM EST (5/7) 3:45 PM EST (5/7)
Length of Visible Light 11h 15m
Length of Day
10h 19m
Waning Crescent, 8% of the Moon is Illuminated
May 7
Waning Crescent
May 10
New
May 18
First Quarter
May 25
Full
Jun 1
Last Quarter

Hourly Weather History & Observations

Time (EST) Temp. Windchill Dew Point Humidity Pressure Visibility Wind Dir Wind Speed Gust Speed Precip Events Conditions
12:00 AM 46 °F - 40 °F 72% 30.24 in - North 4.6 mph - -   Overcast
12:00 AM 46.4 °F 44.3 °F 39.2 °F 76% 30.24 in 6.2 mi North 4.6 mph - N/A   Overcast
12:30 AM 44.6 °F - 39.2 °F 81% 30.24 in 6.2 mi North 2.3 mph - N/A   Mostly Cloudy
1:00 AM 44.6 °F - 39.2 °F 81% 30.21 in 6.2 mi Calm Calm - N/A   Overcast
1:30 AM 44.6 °F - 39.2 °F 81% 30.21 in 6.2 mi Calm Calm - N/A   Overcast
2:00 AM 46.4 °F 42.4 °F 41.0 °F 81% 30.21 in 6.2 mi ENE 8.1 mph - N/A   Overcast
2:30 AM 48.2 °F - 41.0 °F 76% 30.21 in 6.2 mi North 3.5 mph - N/A   Overcast
3:00 AM 47 °F - 41 °F 74% 30.24 in - ENE 1.2 mph - -   Overcast
3:00 AM 48.2 °F - 41.0 °F 76% 30.21 in 6.2 mi ENE 1.2 mph - N/A Rain Light Rain Showers
3:30 AM 48.2 °F - 42.8 °F 82% 30.21 in 6.2 mi ENE 4.6 mph - N/A   Overcast
4:00 AM 48.2 °F - 42.8 °F 82% 30.24 in 6.2 mi Calm Calm - N/A   Overcast
4:30 AM 48.2 °F - 42.8 °F 82% 30.24 in 6.2 mi West 4.6 mph - N/A   Overcast
5:00 AM 48.2 °F - 42.8 °F 82% 30.24 in 6.2 mi WNW 4.6 mph - N/A Rain Light Rain
5:30 AM 48.2 °F - 44.6 °F 87% 30.24 in 6.2 mi West 1.2 mph - N/A Rain Rain
6:00 AM 48 °F - 45 °F 87% 30.27 in - Calm Calm - -   Overcast
6:00 AM 48.2 °F - 44.6 °F 87% 30.24 in 6.2 mi Calm Calm - N/A Rain Light Rain
6:30 AM 48.2 °F - 46.4 °F 93% 30.27 in 6.2 mi East 4.6 mph - N/A Rain Light Rain
7:00 AM 50.0 °F - 46.4 °F 87% 30.27 in 6.2 mi NE 8.1 mph - N/A   Overcast
7:30 AM 50.0 °F - 46.4 °F 87% 30.27 in 6.2 mi NNE 6.9 mph - N/A   Overcast
8:00 AM 50.0 °F - 46.4 °F 87% 30.30 in 6.2 mi NE 5.8 mph - N/A   Overcast
8:30 AM 51.8 °F - 46.4 °F 82% 30.30 in 6.2 mi NE 4.6 mph - N/A   Overcast
9:00 AM 52 °F - 48 °F 82% 30.32 in - NE 4.6 mph - -   Overcast
9:00 AM 51.8 °F - 48.2 °F 88% 30.30 in 6.2 mi NE 4.6 mph - N/A Rain Light Rain Showers
9:30 AM 53.6 °F - 50.0 °F 88% 30.30 in 6.2 mi NE 6.9 mph - N/A   Overcast
10:00 AM 57.2 °F - 53.6 °F 88% 30.30 in 6.2 mi NNE 5.8 mph - N/A Rain Light Rain Showers
10:30 AM 60.8 °F - 51.8 °F 72% 30.27 in 6.2 mi North 9.2 mph - N/A   Scattered Clouds
11:00 AM 59.0 °F - 50.0 °F 72% 30.27 in 6.2 mi NE 12.7 mph - N/A   Scattered Clouds
11:30 AM 62.6 °F - 50.0 °F 63% 30.27 in 6.2 mi NNE 15.0 mph - N/A   Scattered Clouds
12:00 PM 64.4 °F - 48.2 °F 56% 30.24 in 6.2 mi NE 12.7 mph - N/A   Unknown
12:30 PM 66.2 °F - 46.4 °F 49% 30.24 in 6.2 mi NNE 12.7 mph - N/A   Unknown
1:00 PM 68.0 °F - 44.6 °F 43% 30.21 in 6.2 mi NNE 12.7 mph - N/A   Unknown
1:30 PM 69.8 °F - 44.6 °F 40% 30.21 in 6.2 mi NNE 10.4 mph - N/A   Unknown
2:00 PM 69.8 °F - 41.0 °F 35% 30.21 in 6.2 mi NNE 12.7 mph - N/A   Unknown
2:30 PM 71.6 °F - 41.0 °F 33% 30.21 in 6.2 mi North 11.5 mph - N/A   Unknown
3:00 PM 71 °F - 43 °F 25% 30.22 in - North 16.1 mph - -  
3:00 PM 71.6 °F - 42.8 °F 35% 30.21 in 6.2 mi North 16.1 mph - N/A   Unknown
3:30 PM 68.0 °F - 42.8 °F 40% 30.21 in 6.2 mi North 15.0 mph - N/A   Unknown
4:00 PM 66.2 °F - 42.8 °F 43% 30.21 in 6.2 mi NNE 10.4 mph - N/A   Unknown
4:30 PM 66.2 °F - 39.2 °F 37% 30.21 in 6.2 mi North 10.4 mph - N/A   Scattered Clouds
5:00 PM 64.4 °F - 46.4 °F 52% 30.21 in 6.2 mi NNE 8.1 mph - N/A Rain Light Rain
5:30 PM 62.6 °F - 44.6 °F 52% 30.21 in 6.2 mi NE 10.4 mph - N/A   Scattered Clouds
6:00 PM 60 °F - 46 °F 48% 30.25 in - NNE 8.1 mph - -  
6:00 PM 60.8 °F - 46.4 °F 59% 30.24 in 6.2 mi NNE 8.1 mph - N/A   Unknown
6:30 PM 59.0 °F - 46.4 °F 63% 30.24 in 6.2 mi NNE 9.2 mph - N/A   Unknown
7:00 PM 57.2 °F - 46.4 °F 67% 30.24 in 6.2 mi NNE 11.5 mph - N/A   Unknown
7:30 PM 55.4 °F - 44.6 °F 67% 30.27 in 6.2 mi NNE 8.1 mph - N/A   Unknown
8:00 PM 57.2 °F - 44.6 °F 63% 30.27 in 6.2 mi NNE 11.5 mph - N/A   Unknown
8:30 PM 53.6 °F - 44.6 °F 72% 30.27 in 6.2 mi NNE 8.1 mph - N/A   Unknown
9:00 PM 54 °F - 45 °F 63% 30.30 in - NNE 8.1 mph - -  
9:00 PM 53.6 °F - 44.6 °F 72% 30.27 in 6.2 mi NNE 8.1 mph - N/A   Unknown
9:30 PM 51.8 °F - 42.8 °F 71% 30.30 in 6.2 mi NE 9.2 mph - N/A   Unknown
10:00 PM 51.8 °F - 42.8 °F 71% 30.30 in 6.2 mi NNE 5.8 mph - N/A   Unknown
10:30 PM 50.0 °F - 44.6 °F 82% 30.30 in 6.2 mi NNE 6.9 mph - N/A   Unknown
11:00 PM 48.2 °F - 42.8 °F 82% 30.30 in 6.2 mi NNE 2.3 mph - N/A   Unknown
11:30 PM 48.2 °F - 42.8 °F 82% 30.30 in 6.2 mi NE 8.1 mph - N/A   Scattered Clouds